Home > Weather > Klosterneuburg > Past weeks

Flag for Austria Past Weather in Klosterneuburg, Lower Austria, Austria — Yesterday and Last 2 Weeks

Now
74 °F

Mild.


Feels Like: 76 °F
Forecast: 59 / 65 °F
Wind: 3 mph from Northwest

Location: Wien / Hohe Warte

Current Time: Jun 26, 2016 at 3:57:41 PM

Latest Report: Jun 26, 2016 at 3:00 PM


Visibility: N/A

Pressure: 30.00 "Hg

Humidity: 66%

Dew Point: 62 °F

Location of KlosterneuburgLocation

Past Weather in Klosterneuburg — Graph

°F

Klosterneuburg Temperature Yesterday

Maximum temperature yesterday: 90 °F (at 4:00 PM)
Minimum temperature yesterday: 72 °F (at 5:00 AM)
Average temperature yesterday: 82 °F

High & Low Weather Summary for the Past Weeks

 TemperatureHumidityPressure
High91 °F (Jun 24, 5:00 PM)96% (Jun 21, 4:00 AM)30.27 "Hg (Jun 21, 4:00 AM)
Low56 °F (Jun 21, 5:00 AM)37% (Jun 23, 6:00 PM)29.47 "Hg (Jun 17, 5:00 AM)
Average69 °F70%29.90 "Hg
* Reported Jun 11 2:00 PM — Jun 26 2:00 PM, Klosterneuburg, Weather by CustomWeather, © 2016

Note: Actual official high and low records may vary slightly from our data, if they occured in-between our weather recording intervals... More about our weather records

Advertising

Klosterneuburg Weather History for the Previous 24 Hours

Scroll right to see more
 ConditionsComfort  
Time TempWeatherWind HumidityBarometerVisibility
2:00 PM
Sun, Jun 26
75 °FOvercast.6 mph63%30.01 "Hg34 mi
1:00 PM72 °FMild.5 mph66%30.02 "HgN/A
12:00 PM72 °FMild.5 mph69%30.02 "HgN/A
11:00 AM71 °FOvercast.5 mph72%30.02 "Hg31 mi
10:00 AM69 °FOvercast.5 mph77%30.02 "Hg31 mi
9:00 AM67 °FMild.6 mph81%30.00 "HgN/A
8:00 AM66 °FOvercast.7 mph83%29.99 "Hg25 mi
7:00 AM66 °FOvercast.6 mph89%29.98 "Hg22 mi
6:00 AM65 °FOvercast.1 mph92%29.97 "Hg22 mi
5:00 AM65 °FOvercast.1 mph94%29.96 "Hg31 mi
4:00 AM65 °FFog.5 mph90%29.92 "HgN/A
3:00 AM65 °FMild.8 mph91%29.93 "HgN/A
2:00 AM65 °FThundershowers. Overcast.7 mph95%29.99 "Hg1 mi
1:00 AM71 °FMild.10 mph68%29.88 "HgN/A
12:00 AM73 °FMild.12 mph65%29.89 "HgN/A
11:00 PM
Sat, Jun 25
79 °FPassing clouds.9 mph56%29.85 "Hg12 mi
10:00 PM83 °FPassing clouds.3 mph55%29.81 "Hg16 mi
9:00 PM84 °FPassing clouds.6 mph53%29.79 "Hg19 mi
8:00 PM86 °FScattered clouds.7 mph49%29.79 "Hg22 mi
7:00 PM88 °FPassing clouds.8 mph45%29.80 "Hg22 mi
6:00 PM89 °FPassing clouds.6 mph44%29.78 "Hg12 mi
5:00 PM90 °FPassing clouds.7 mph44%29.80 "Hg16 mi
4:00 PM90 °FHot.7 mph43%29.82 "HgN/A
3:00 PM89 °FHot.8 mph45%29.83 "HgN/A
Weather by CustomWeather, © 2016

See weather overviewHow to use our weather pages